User: anonymous   Login
Location: Unspecified
(0.0000°N, 0.0000°E)
Time: 16:29:11
(UTC+00:00)
Language:

DSP F17 - Orbit

View from above orbital plane
View from above orbital plane
View from above satellite
View from above satellite

Ground track
Ground track

The orbit data is extracted from the following two-line orbital elements,

1 23435U 94084A   24109.15880385 -.00000066  00000-0  00000+0 0  9998
2 23435  14.5499   0.7134 0003342 265.1538 269.9281  0.99075899 23725
Epoch (UTC): 18 April 2024 03:48:40
Eccentricity: 0.0003342
inclination: 14.5499°
perigee height: 36110 km
apogee height: 36139 km
right ascension of ascending node: 0.7134°
argument of perigee: 265.1538°
revolutions per day: 0.99075899
mean anomaly at epoch: 269.9281°
orbit number at epoch: 2372

The dashed part of the orbit path shows where the satellite is in the earth's shadow,  

DLR